TimeEDT,TemperatureF,Dew PointF,Humidity,Sea Level PressureIn,VisibilityMPH,Wind Direction,Wind SpeedMPH,Gust SpeedMPH,PrecipitationIn,Events,Conditions,WindDirDegrees,DateUTC
12:54 AM,51.1,45.0,80,30.44,8.0,SSE,5.8,-,N/A,,Mostly Cloudy,160,2007-03-22 04:54:00
1:18 AM,51.8,44.6,76,30.46,7.0,South,4.6,-,N/A,,Mostly Cloudy,170,2007-03-22 05:18:00
1:46 AM,51.8,46.4,82,30.45,7.0,SSE,4.6,-,N/A,,Overcast,160,2007-03-22 05:46:00
1:54 AM,51.1,46.0,83,30.43,7.0,SSE,4.6,-,N/A,,Overcast,150,2007-03-22 05:54:00
2:54 AM,52.0,45.0,77,30.41,8.0,SSE,3.5,-,N/A,,Overcast,150,2007-03-22 06:54:00
3:54 AM,52.0,44.1,74,30.39,8.0,SSE,6.9,-,N/A,,Overcast,150,2007-03-22 07:54:00
4:54 AM,52.0,44.1,74,30.38,9.0,Variable,4.6,-,N/A,,Overcast,0,2007-03-22 08:54:00
5:45 AM,51.8,44.6,76,30.41,8.0,SSW,3.5,-,N/A,,Overcast,200,2007-03-22 09:45:00
5:54 AM,52.0,44.1,74,30.39,8.0,Calm,Calm,-,N/A,,Overcast,0,2007-03-22 09:54:00
6:38 AM,51.8,44.6,76,30.43,8.0,Calm,Calm,-,N/A,,Overcast,0,2007-03-22 10:38:00
6:54 AM,52.0,44.1,74,30.40,8.0,SSW,4.6,-,N/A,,Overcast,200,2007-03-22 10:54:00
7:02 AM,51.8,44.6,76,30.43,8.0,South,4.6,-,N/A,,Overcast,190,2007-03-22 11:02:00
7:54 AM,50.0,44.1,80,30.40,7.0,South,6.9,-,N/A,,Clear,170,2007-03-22 11:54:00
8:54 AM,53.1,44.1,71,30.41,7.0,South,3.5,-,N/A,,Clear,180,2007-03-22 12:54:00
9:54 AM,57.0,46.9,69,30.40,10.0,SE,6.9,-,N/A,,Clear,140,2007-03-22 13:54:00
10:54 AM,64.0,48.0,56,30.38,10.0,South,12.7,19.6,N/A,,Clear,180,2007-03-22 14:54:00
11:54 AM,64.9,48.0,54,30.36,10.0,South,15.0,-,N/A,,Clear,180,2007-03-22 15:54:00
12:54 PM,68.0,46.0,45,30.34,10.0,South,11.5,-,N/A,,Clear,190,2007-03-22 16:54:00
1:54 PM,70.0,46.9,44,30.30,10.0,South,16.1,-,N/A,,Clear,170,2007-03-22 17:54:00
2:54 PM,69.1,46.0,44,30.28,10.0,South,13.8,-,N/A,,Scattered Clouds,190,2007-03-22 18:54:00
3:54 PM,70.0,46.9,44,30.27,10.0,South,11.5,-,N/A,,Scattered Clouds,190,2007-03-22 19:54:00
4:54 PM,70.0,46.9,44,30.24,10.0,SSW,13.8,21.9,N/A,,Partly Cloudy,200,2007-03-22 20:54:00
5:54 PM,69.1,46.0,44,30.25,10.0,SSW,13.8,-,N/A,,Scattered Clouds,200,2007-03-22 21:54:00
6:54 PM,66.0,46.0,48,30.25,10.0,SSW,12.7,-,N/A,,Clear,200,2007-03-22 22:54:00
7:54 PM,64.0,45.0,50,30.26,10.0,South,10.4,-,N/A,,Clear,190,2007-03-22 23:54:00
8:54 PM,60.1,46.0,60,30.26,10.0,South,8.1,-,N/A,,Clear,170,2007-03-23 00:54:00
9:54 PM,59.0,46.9,64,30.27,10.0,South,5.8,-,N/A,,Clear,190,2007-03-23 01:54:00
10:54 PM,57.0,46.0,67,30.26,10.0,South,4.6,-,N/A,,Clear,180,2007-03-23 02:54:00
11:54 PM,55.0,46.9,74,30.26,10.0,Calm,Calm,-,N/A,,Clear,0,2007-03-23 03:54:00